Location: Newark
(40.3500°N, 15.2333°E)
Time: 22:16:15
(UTC+00:00)

NOAA 15 - Visible Passes

Search period start: 21 February 2020 00:00
Search period end: 02 March 2020 00:00
Orbit: 798 x 812 km, 98.7° (Epoch: 21 February)

Date Brightness Start Highest point End Pass type
(mag) Time Alt. Az. Time Alt. Az. Time Alt. Az.
21 Feb 8.1 05:02:02 10° ENE 05:04:02 12° E 05:06:03 10° ESE visible
21 Feb 5.5 17:58:41 10° S 18:03:51 52° W 18:09:03 10° NNW visible
22 Feb 4.6 17:33:25 10° SSE 17:38:44 89° WSW 17:44:05 10° NNW visible
23 Feb 4.7 17:08:33 10° SSE 17:13:42 54° ENE 17:18:54 10° N visible
23 Feb 7.3 18:50:11 10° SW 18:53:47 18° W 18:57:25 10° NW visible
24 Feb 6.5 18:23:50 10° SSW 18:28:29 31° W 18:33:11 10° NW visible
25 Feb 8.2 05:01:34 10° ENE 05:03:27 12° E 05:05:20 10° ESE visible
25 Feb 5.5 17:58:06 10° S 18:03:16 53° W 18:08:30 10° NNW visible
26 Feb 4.6 17:32:51 10° SSE 17:38:10 90° E 17:43:31 10° NNW visible
26 Feb 7.9 19:17:58 10° W 19:18:36 10° W 19:19:15 10° W visible
27 Feb 4.8 17:08:00 10° SSE 17:13:08 54° ENE 17:18:19 10° N visible
27 Feb 7.3 18:49:34 10° SW 18:53:13 19° W 18:56:53 10° NW visible
28 Feb 6.5 18:23:13 10° SSW 18:27:55 32° W 18:32:38 10° NW visible
29 Feb 8.3 05:01:07 10° ENE 05:02:52 12° E 05:04:37 10° ESE visible
29 Feb 5.4 17:57:31 10° S 18:02:42 54° W 18:07:56 10° NNW visible
01 Mar 4.6 17:32:16 10° SSE 17:37:35 89° ENE 17:42:56 10° NNW visible
01 Mar 7.9 19:17:06 10° W 19:18:01 10° W 19:18:56 10° WNW visible
